Regional Weather Roundup
Issued by NWS

Home | Current Version | Previous Version | Graphics & Text | Print | Product List | Glossary Off
Versions: 1 2 3 4 5 6 7 8 9 10 11 12 13 14 15 16 17 18 19 20 21 22 23 24 25 26 27 28 29 30 31 32 33 34 35 36 37 38 39 40 41 42 43 44 45 46 47 48 49 50

000
ASUS45 KBOU 291307
RWRCO

WEATHER ROUNDUP FOR COLORADO
NATIONAL WEATHER SERVICE DENVER/BOULDER CO
600 AM MST MON DEC 29 2014

NOTE: "FAIR" INDICATES FEW OR NO CLOUDS BELOW 12000 FEET WITH NO
SIGNIFICANT WEATHER AND/OR OBSTRUCTIONS TO VISIBILITY.

COZ001>005-013-030-031-291400-
...NORTHWEST COLORADO...

CITY           SKY/WX    TMP DP  RH WIND       PRES   REMARKS
CRAIG          CLOUDY    11   7  84 N3        29.96R
HAYDEN         PTCLDY    10   7  85 E6        29.92S WCI   1
MEEKER         MOCLDY     5   3  91 CALM      29.93R
MOUNT WERNER   NOT AVBL
STEAMBOAT SPGS MOCLDY     7   4  85 NW6       29.92S WCI  -3
WALDEN         CLOUDY    -2  -8  78 CALM      29.90S
$$

COZ006>008-011-291400-
...WEST CENTRAL VALLEYS...

CITY           SKY/WX    TMP DP  RH WIND       PRES   REMARKS
GRAND JUNCTION LGT SNOW  21  20  96 CALM      29.98S FOG
MONTROSE       LGT SNOW  20  18  92 SE7       29.98S VSB 1   WCI  11
EAGLE          CLOUDY    14  12  92 E5        29.96S WCI   6
RIFLE          LGT SNOW  18  15  88 CALM      29.97S FOG
DELTA          LGT SNOW  23  21  89 N5        29.99F WCI  17
NUCLA          LGT SNOW  23  19  86 S3        30.00R
$$

COZ017>023-064>068-291400-
...SOUTHWEST COLORADO...

CITY           SKY/WX    TMP DP  RH WIND       PRES   REMARKS
DURANGO        MOCLDY     4   2  91 CALM      29.96F
CORTEZ         PTCLDY    11   7  84 N3        29.97S
PAGOSA SPRINGS PTCLDY   N/A N/A N/A CALM      29.94F
TELLURIDE      NOT AVBL
WOLF CREEK PAS LGT SNOW   1   0  92 MISG      29.81S
$$

COZ009-010-012-014-032>034-037-058>063-291400-
...CENTRAL COLORADO...

CITY           SKY/WX    TMP DP  RH WIND       PRES   REMARKS
ASPEN          LGT SNOW  14  11  87 CALM      29.87S FOG
BUENA VISTA    LGT SNOW  16  13  89 CALM      29.89S
COPPER MTN     LGT SNOW   5  -2  72 SW3       29.75S
BERTHOUD PASS  NOT AVBL
COTTONWOOD PAS LGT SNOW  14  10  85 CALM      29.83R VSB 1
GUNNISON       CLOUDY     3 -20  33 CALM      29.93S
KREMMLING      FLURRIES   5   1  85 CALM      29.94R
LEADVILLE      CLOUDY     4   0  83 CALM      29.81R
MONARCH PASS     N/A      5   1  85 MISG      29.87R
SALIDA         CLOUDY    18  10  72 SW5       29.98R WCI  11
SUNLIGHT       CLOUDY   N/A N/A N/A CALM      29.80F HAZE
WILKERSON PASS LGT SNOW   5   0  78 E7        29.81S WCI  -7
$$

COZ069>075-291400-
...SAN LUIS VALLEY/SANGRE DE CRISTO MOUNTAINS...

CITY           SKY/WX    TMP DP  RH WIND       PRES   REMARKS
ALAMOSA        MOCLDY   -10 -15  78 NW3       29.94S
LA VETA PASS   NOT AVBL
SAGUACHE       MOCLDY     0  -4  85 N6        29.93S WCI -12
$$

COZ035-036-038>040-291400-
...NORTHERN COLORADO FRONT RANGE...

CITY           SKY/WX    TMP DP  RH WIND       PRES   REMARKS
DENVER INTL AP CLOUDY    17  11  77 N7        30.05R WCI   8
DMNS CITY PARK   N/A     19  11  69 NE5G14    30.07R WCI  13
AURORA         MOCLDY    18  11  75 N10       30.04R WCI   6
FRONT RANGE AP CLOUDY    19  16  86 N6        30.05R WCI  11
ERIE MUNI ARPT   N/A     16  12  83 MISG      30.07R
BOULDER MUN AP CLOUDY    19  10  68 NE5       30.06R WCI  13
CENTENNIAL     CLOUDY    19  10  68 NW9       30.02R WCI   8
BROOMFIELD     CLOUDY   N/A N/A N/A MISG      30.04R
FORT COLLINS   MOCLDY    18  10  73 N16       30.08R WCI   3
LONGMONT       CLOUDY    13   8  80 CALM      30.10R
$$

COZ041-046-047-076>085-087-088-291400-
...PIKES PEAK/PALMER DIVIDE AND SOUTHERN FOOTHILLS...

CITY           SKY/WX    TMP DP  RH WIND       PRES   REMARKS
COLO. SPRINGS  MOCLDY    21  11  65 N15       29.96R WCI   8
A. F. ACADEMY  CLOUDY    18  11  72 N10       29.96R WCI   6
ELLICOTT       NOT AVBL
FALCON         MOCLDY    18  10  73 N12G17    29.95R WCI   5
FORT CARSON    MOCLDY    21  11  64 N18       29.95R WCI   7
LIMON          CLOUDY    19  14  81 NW9       30.00R WCI   8
MONUMENT HILL  FLURRIES  14  10  85 NW8       29.95R WCI   3
TRINIDAD       PTCLDY    10   3  73 W7        29.94R WCI  -1
$$

COZ042>045-048>051-090-091-291400-
...NORTHEAST COLORADO...

CITY           SKY/WX    TMP DP  RH WIND       PRES   REMARKS
GREELEY ARPT   MOCLDY    16   9  73 N13       30.06R WCI   2
AKRON          CLOUDY    15  14  95 N13       30.07R FOG     WCI   1
BURLINGTON     CLOUDY    16  13  88 N12       30.06R FOG     WCI   3
WRAY           MOCLDY     5   2  86 CALM      30.11R
STERLING       CLOUDY    16  14  93 CALM      30.11R
HOLYOKE        CLOUDY    14  10  85 N8        30.13R WCI   3
FORT MORGAN    MOCLDY    16  13  86 N21G30    30.08R WCI  -1
$$

COZ086-089-092>099-291400-
...SOUTHEAST COLORADO...

CITY           SKY/WX    TMP DP  RH WIND       PRES   REMARKS
PUEBLO         PTCLDY    12   7  80 W3        29.99R
LA JUNTA       CLEAR     15  11  83 N6        30.01R WCI   6
LAMAR          CLEAR      8   4  83 CALM      30.02R
SPRINGFIELD      N/A     16  12  84 N9        29.97R WCI   4
$$



USA.gov is the U.S. government's official web portal to all federal, state and local government web resources and services.